GLD1743 TGPY-TNCM

Flight info

Callsign GLD1743
Flight time N/A
Altitude 38000
Route DELNU UL329 ZPATA
Aircraft A20N/M-SDE2E3FGHIRWXY/LB1

Departure

Time 2026-04-28 23:33
Airport Maurice Bishop International Airport (TGPY)

Arrival

Time N/A
Airport Princess Juliana International Airport (TNCM)
Time Latitude Longitude Altitude Speed Heading
2026-04-28 23:28 12.00509 -61.78601 43 ft 0 kts 176°
2026-04-28 23:29 12.00464 -61.78601 44 ft 12 kts 180°
2026-04-28 23:29 12.00410 -61.78661 43 ft 14 kts 262°
2026-04-28 23:29 12.00412 -61.78766 43 ft 16 kts 271°
2026-04-28 23:29 12.00412 -61.78889 43 ft 18 kts 271°
2026-04-28 23:30 12.00411 -61.79024 45 ft 20 kts 271°
2026-04-28 23:30 12.00412 -61.79176 43 ft 23 kts 270°
2026-04-28 23:30 12.00414 -61.79350 39 ft 27 kts 270°
2026-04-28 23:30 12.00414 -61.79551 36 ft 29 kts 270°
2026-04-28 23:31 12.00415 -61.79737 33 ft 24 kts 271°
2026-04-28 23:31 12.00457 -61.79826 31 ft 10 kts 290°
2026-04-28 23:31 12.00417 -61.79855 30 ft 7 kts 136°
2026-04-28 23:31 12.00416 -61.79842 31 ft 0 kts 90°
2026-04-28 23:32 12.00416 -61.79834 31 ft 2 kts 90°
2026-04-28 23:32 12.00413 -61.79496 37 ft 93 kts 89°
2026-04-28 23:32 12.00404 -61.78568 101 ft 160 kts 91°
2026-04-28 23:33 12.00365 -61.77382 816 ft 175 kts 92°
2026-04-28 23:33 12.00417 -61.76101 1716 ft 186 kts 78°
2026-04-28 23:33 12.00931 -61.74876 2565 ft 192 kts 57°
2026-04-28 23:33 12.01839 -61.73850 3334 ft 200 kts 46°
2026-04-28 23:34 12.02944 -61.72945 3972 ft 212 kts 28°
2026-04-28 23:34 12.04427 -61.72554 4522 ft 231 kts 10°
2026-04-28 23:34 12.06090 -61.72397 5046 ft 249 kts
2026-04-28 23:34 12.07877 -61.72238 5558 ft 266 kts
2026-04-28 23:35 12.09732 -61.71994 6230 ft 276 kts 12°
2026-04-28 23:35 12.11630 -61.71643 7008 ft 279 kts 14°
2026-04-28 23:35 12.13529 -61.71214 7838 ft 280 kts 16°
2026-04-28 23:35 12.15434 -61.70734 8656 ft 284 kts 17°
2026-04-28 23:36 12.17358 -61.70221 9408 ft 288 kts 18°
2026-04-28 23:36 12.19330 -61.69678 10126 ft 292 kts 18°
2026-04-28 23:36 12.21314 -61.69127 10487 ft 307 kts 17°
2026-04-28 23:36 12.23431 -61.68538 10776 ft 324 kts 17°
2026-04-28 23:37 12.25658 -61.67920 11053 ft 339 kts 17°
2026-04-28 23:37 12.27968 -61.67286 11513 ft 347 kts 17°
2026-04-28 23:37 12.30313 -61.66643 12112 ft 350 kts 17°
2026-04-28 23:37 12.32675 -61.66001 12725 ft 353 kts 17°
2026-04-28 23:38 12.35060 -61.65353 13315 ft 356 kts 17°
2026-04-28 23:38 12.37464 -61.64697 13896 ft 359 kts 17°
2026-04-28 23:38 12.39892 -61.64029 14400 ft 363 kts 17°
2026-04-28 23:38 12.42341 -61.63351 14909 ft 366 kts 17°
2026-04-28 23:39 12.44814 -61.62670 15410 ft 370 kts 17°
2026-04-28 23:39 12.47309 -61.61987 15899 ft 373 kts 17°
2026-04-28 23:39 12.49833 -61.61295 16407 ft 377 kts 17°
2026-04-28 23:39 12.52373 -61.60600 16886 ft 381 kts 17°
2026-04-28 23:40 12.54947 -61.59894 17371 ft 385 kts 17°
2026-04-28 23:40 12.57548 -61.59182 17849 ft 389 kts 17°
2026-04-28 23:40 12.60170 -61.58465 18328 ft 392 kts 17°
2026-04-28 23:40 12.62822 -61.57741 18759 ft 396 kts 17°
2026-04-28 23:41 12.65492 -61.57009 19174 ft 400 kts 17°
2026-04-28 23:41 12.68198 -61.56263 19588 ft 404 kts 17°
2026-04-28 23:41 12.70932 -61.55506 20020 ft 408 kts 17°
2026-04-28 23:41 12.73686 -61.54743 20457 ft 412 kts 16°
2026-04-28 23:42 12.75526 -61.54236 20743 ft 415 kts 16°
2026-04-28 23:42 12.79279 -61.53208 21328 ft 420 kts 15°
2026-04-28 23:42 12.81154 -61.52698 21622 ft 422 kts 16°
2026-04-28 23:42 12.84005 -61.51921 22073 ft 425 kts 15°
2026-04-28 23:43 12.86871 -61.51136 22492 ft 429 kts 15°
2026-04-28 23:43 12.89764 -61.50341 22908 ft 432 kts 15°
2026-04-28 23:43 12.92679 -61.49540 23319 ft 435 kts 15°
2026-04-28 23:43 12.95616 -61.48731 23693 ft 438 kts 15°
2026-04-28 23:44 12.98568 -61.47916 24027 ft 441 kts 15°
2026-04-28 23:44 13.01535 -61.47095 24364 ft 443 kts 15°
2026-04-28 23:44 13.04517 -61.46270 24687 ft 445 kts 15°
2026-04-28 23:44 13.07520 -61.45440 25011 ft 448 kts 15°
2026-04-28 23:45 13.10545 -61.44605 25330 ft 450 kts 15°
2026-04-28 23:45 13.13578 -61.43768 25653 ft 453 kts 15°
2026-04-28 23:45 13.16626 -61.42931 25949 ft 455 kts 15°
2026-04-28 23:45 13.19694 -61.42090 26251 ft 458 kts 15°
2026-04-28 23:46 13.22776 -61.41244 26548 ft 460 kts 15°
2026-04-28 23:46 13.25835 -61.40399 26835 ft 462 kts 15°
2026-04-28 23:46 13.28989 -61.39526 27124 ft 464 kts 14°
2026-04-28 23:46 13.32072 -61.38675 27406 ft 467 kts 14°
2026-04-28 23:47 13.35220 -61.37805 27683 ft 469 kts 14°
2026-04-28 23:47 13.38372 -61.36933 27958 ft 471 kts 14°
2026-04-28 23:47 13.41562 -61.36131 28233 ft 473 kts
2026-04-28 23:47 13.44836 -61.36017 28532 ft 471 kts 352°
2026-04-28 23:48 13.48029 -61.36734 28818 ft 471 kts 341°
2026-04-28 23:48 13.51174 -61.37717 29067 ft 474 kts 341°
2026-04-28 23:48 13.54332 -61.38712 29340 ft 476 kts 341°
2026-04-28 23:48 13.57515 -61.39691 29624 ft 478 kts 342°
2026-04-28 23:49 13.60729 -61.40603 29903 ft 481 kts 343°
2026-04-28 23:49 13.64003 -61.41412 30134 ft 485 kts 346°
2026-04-28 23:49 13.67324 -61.42076 30329 ft 488 kts 348°
2026-04-28 23:49 13.70698 -61.42568 30532 ft 490 kts 352°
2026-04-28 23:50 13.74106 -61.42860 30756 ft 492 kts 355°
2026-04-28 23:50 13.77526 -61.42933 30984 ft 493 kts 359°
2026-04-28 23:50 13.80960 -61.42775 31202 ft 495 kts
2026-04-28 23:50 13.84382 -61.42375 31386 ft 497 kts
2026-04-28 23:51 13.87789 -61.41730 31541 ft 499 kts 11°
2026-04-28 23:51 13.91155 -61.40836 31657 ft 502 kts 15°
2026-04-28 23:51 13.94479 -61.39691 31773 ft 504 kts 19°
2026-04-28 23:51 13.97720 -61.38302 31905 ft 506 kts 23°
2026-04-28 23:52 14.00870 -61.36672 32047 ft 507 kts 27°
2026-04-28 23:52 14.03901 -61.34814 32206 ft 508 kts 32°
2026-04-28 23:52 14.06803 -61.32731 32366 ft 509 kts 36°
2026-04-28 23:52 14.09558 -61.30436 32509 ft 510 kts 40°
2026-04-28 23:53 14.12157 -61.27938 32630 ft 512 kts 44°
2026-04-28 23:53 14.14588 -61.25246 32739 ft 514 kts 49°
2026-04-28 23:53 14.16837 -61.22378 32848 ft 516 kts 53°
2026-04-28 23:53 14.18892 -61.19343 32979 ft 517 kts 57°
2026-04-28 23:54 14.20739 -61.16162 33132 ft 518 kts 61°
2026-04-28 23:54 14.22373 -61.12840 33305 ft 519 kts 65°
2026-04-28 23:54 14.23778 -61.09405 33484 ft 521 kts 69°
2026-04-28 23:54 14.24947 -61.05874 33662 ft 522 kts 73°
2026-04-28 23:55 14.25878 -61.02253 33832 ft 524 kts 77°
2026-04-28 23:55 14.26564 -60.98561 34003 ft 526 kts 82°
2026-04-28 23:55 14.26998 -60.94811 34160 ft 528 kts 86°
2026-04-28 23:55 14.27171 -60.91079 34330 ft 529 kts 90°
2026-04-28 23:56 14.27129 -60.88256 34459 ft 530 kts 93°
2026-04-28 23:56 14.26996 -60.86094 34591 ft 531 kts 96°
2026-04-28 23:56 14.26547 -60.82312 34806 ft 532 kts 100°
2026-04-28 23:56 14.25823 -60.78567 35026 ft 533 kts 105°
2026-04-28 23:57 14.24825 -60.74881 35243 ft 535 kts 109°
2026-04-28 23:57 14.23557 -60.71279 35463 ft 537 kts 114°
2026-04-28 23:57 14.22650 -60.69128 35612 ft 538 kts 117°
2026-04-28 23:57 14.20945 -60.65688 35865 ft 539 kts 121°
2026-04-28 23:58 14.18987 -60.62398 36129 ft 540 kts 126°
2026-04-28 23:58 14.16774 -60.59262 36431 ft 541 kts 130°
2026-04-28 23:58 14.14324 -60.56312 36721 ft 543 kts 135°
2026-04-28 23:58 14.11633 -60.53521 36503 ft 555 kts 139°
2026-04-28 23:59 14.08671 -60.50845 35299 ft 580 kts 143°
2026-04-28 23:59 14.05469 -60.48182 30795 ft 612 kts 144°
2026-04-28 23:59 14.01878 -60.45472 23538 ft 668 kts 147°
2026-04-28 23:59 14.00417 -60.44464 20403 ft 0 kts 148°